Location: Chausson
(48.6833°N, 0.2333°E)
Time: 22:21:00
(UTC+00:00)

Daily predictions for brighter satellites

Satellite Brightness Start Highest point End
(mag) Time Altitude Azimuth Time Altitude Azimuth Time Altitude Azimuth
Cosmos 1300 Rocket 4.1 18:15:51 10° SSE 18:19:53 36° E 18:23:57 10° NNE
Sich 1 Rocket 3.7 18:19:41 10° S 18:24:08 62° E 18:28:40 10° NNE
CENTAUR R/B 3.3 18:16:31 10° NW 18:24:20 64° NE 18:33:01 10° ESE
NOSS 2-2 (E) 3.4 18:20:58 10° SW 18:24:29 73° NW 18:28:35 10° NE
Cosmos 1833 Rocket 4.2 18:21:36 10° N 18:25:38 19° NE 18:29:39 10° E
Cosmos 2298 Rocket 4.3 18:21:06 10° S 18:26:09 45° ESE 18:31:12 10° NNE
Cosmos 1437 4.4 18:23:29 10° NNW 18:26:17 36° W 18:29:04 10° SSW
Cosmos 1975 3.7 18:23:23 10° SSW 18:27:24 57° WNW 18:31:26 10° N
Iridium 4 Rocket 3.9 18:23:24 10° S 18:28:36 76° W 18:34:17 10° N
CSL-04 Debris 4.2 18:25:36 10° SSE 18:30:54 63° ENE 18:36:15 10° N
Helios 1A Rocket 3.9 18:28:39 10° S 18:32:41 53° W 18:36:46 10° NNW
CSL-04 Rocket 3.8 18:27:30 10° SSE 18:32:52 63° ENE 18:38:20 10° N
Cosmos 1025 Rocket 3.2 18:29:36 10° N 18:33:56 55° ENE 18:38:15 10° SSE
ATLAS 2AS CENTAUR R/B 3.9 18:27:55 10° SSE 18:34:10 26° ESE 18:40:26 10° ENE
Cosmos 1937 Rocket 4.3 18:29:09 10° SW 18:34:18 58° WNW 18:39:28 10° NNE
NOSS 2-2 (D) 3.3 18:30:50 10° SW 18:34:21 74° NW 18:38:22 10° NE
Okean 2 Rocket 3.3 18:30:02 10° S 18:34:22 51° E 18:38:42 10° NNE
YAOGAN 1 2.6 18:31:05 10° SSE 18:35:24 88° ENE 18:39:46 10° NNW
ATLAS 3B R/B 3.6 18:30:17 10° NW 18:36:27 35° NNE 18:42:35 11° E
SKYMED 2 4.2 18:33:42 10° N 18:38:00 62° WNW 18:42:17 10° SSW
Abrixas rocket 2.0 18:36:59 10° W 18:39:48 65° SSW 18:42:11 13° ESE
CREW DRAGON DEMO-1 DEB 2.7 18:38:42 10° WNW 18:41:44 89° NW 18:44:16 14° ESE
Cosmos 1513 Rocket 4.5 18:35:48 10° S 18:41:57 66° E 18:48:02 10° NNE
Cosmos 1536 Rocket 3.7 18:39:20 10° N 18:43:43 52° ENE 18:48:05 10° SSE
Cosmos 1125 Rocket 3.9 18:41:49 10° S 18:46:48 43° ESE 18:51:48 10° NE
SJ-6B 3.9 18:48:31 14° ESE 18:50:49 24° ENE 18:53:53 10° NNE
CZ-4 R/B 2.5 18:48:57 10° S 18:53:03 51° W 18:57:08 10° NNW
Cosmos 2150 Rocket 4.0 18:48:18 10° SSW 18:53:39 70° ESE 18:59:06 10° NNE
USA 238 DEB 4.0 18:46:34 10° NW 18:53:47 78° SW 19:01:16 10° SSE
USA 238 4.0 18:46:40 10° NW 18:53:53 78° SW 19:01:23 10° SSE
SJ-11-01 4.2 18:49:22 10° SSE 18:54:04 82° ENE 18:58:47 10° NNW
CZ-2C R/B 3.3 18:49:45 10° SSE 18:55:09 83° WSW 19:00:52 10° NNW
Cosmos 1464 Rocket 3.9 18:49:10 10° S 18:55:17 79° E 19:01:30 10° NNE
Cosmos 1674 3.0 18:52:22 10° N 18:56:06 45° ENE 18:59:46 10° SSE
Okean-O 4.0 18:52:44 10° S 18:56:56 42° W 19:01:11 10° NNW
Cosmos 1092 Rocket 4.3 18:51:06 10° N 18:56:58 44° ENE 19:02:52 10° SE
Cosmos 2285 Rocket 4.2 18:51:35 10° S 18:57:31 45° ESE 19:03:32 10° NNE
MOS 1 Rocket 3.1 18:58:35 10° NNE 19:02:56 59° E 19:07:09 10° S
FREGAT/IRIS 3.7 19:04:41 21° ENE 19:04:41 21° ENE 19:06:34 10° NNE
In-Cosmos 22 4.4 19:05:01 10° NNW 19:10:18 69° W 19:15:39 10° S
ARGOS 3.1 19:05:23 10° SSE 19:10:44 82° ENE 19:16:10 10° NNW
Cosmos 1048 Rocket 4.5 19:06:10 10° NNW 19:11:28 66° WSW 19:16:45 10° S
CZ-2C R/B 3.1 19:07:54 10° NNE 19:13:08 40° E 19:18:22 10° SSE
Cosmos 1340 Rocket 4.1 19:15:11 22° ENE 19:15:11 22° ENE 19:17:49 10° NE
Cosmos 1733 3.8 19:13:48 16° SSE 19:16:17 33° E 19:19:45 10° NNE
Cosmos 2151 Rocket 3.7 19:12:32 10° S 19:17:01 83° W 19:21:34 10° N
HJ-1C 4.3 19:14:30 10° S 19:17:42 49° W 19:20:56 10° NNW
Lacrosse 5 rocket 3.0 19:13:58 10° NW 19:17:47 28° N 19:20:43 15° ENE
MOS 1 4.4 19:13:05 12° SE 19:18:13 55° ENE 19:23:47 10° N
Cosmos 2082 Rocket 3.4 19:14:20 10° N 19:18:58 25° NE 19:21:17 20° E
BREEZE-M DEB (TANK) 3.7 19:18:54 10° W 19:21:56 42° SSW 19:27:36 16° SE
BREEZE-M R/B 4.1 19:11:21 10° WSW 19:22:41 65° SSE 19:24:25 29° E
DMSP B5D2-2 4.5 19:18:00 10° NNE 19:23:00 40° E 19:27:56 10° SSE
Cosmos 494 Rocket 4.2 19:18:59 10° NNW 19:24:16 76° WSW 19:29:32 10° SSE
Meteor 1-15 Rocket 4.2 19:22:03 10° S 19:27:43 80° E 19:33:30 10° NNE
Cosmos 1805 3.1 19:24:16 10° S 19:28:08 65° E 19:32:02 10° NNE
OBJECT-B 1.8 19:28:48 30° ENE 19:28:48 30° ENE 19:31:23 10° N
Milstar 3 Cent rocket 4.4 19:29:51 10° SSW 19:30:33 10° S 19:31:12 10° S
Ariane Rocket 2.9 19:28:06 13° SSE 19:32:36 78° ENE 19:37:42 10° NNW
SL-08 RB Rocket 3.7 19:28:04 10° SSE 19:32:39 86° WSW 19:37:13 10° NNW
H-2A R/B 2.9 19:29:18 10° S 19:34:08 49° W 19:39:08 10° NNW
Cosmos 1269 Rocket 3.9 19:30:53 10° NNW 19:36:14 80° ENE 19:39:33 24° SSE
Nadezhda 4 Rocket 4.4 19:31:27 10° NNW 19:37:31 64° W 19:43:33 10° S
KORONAS-FOTON 4.3 19:33:45 10° NNW 19:37:39 63° W 19:41:31 10° S
Cosmos 1626 2.0 19:37:44 10° N 19:41:26 62° E 19:42:02 53° SE
Okean 1-7 Rocket 4.3 19:37:29 10° N 19:41:40 34° ENE 19:41:50 34° ENE
MetOp-A 4.0 19:40:20 20° SSE 19:44:08 79° ENE 19:49:32 10° NNW
USA 186 2.2 19:42:34 27° S 19:44:09 60° W 19:47:26 10° NNW
COSMOS 2406 3.2 19:39:43 10° NNW 19:45:25 69° ENE 19:47:55 34° SE
Cosmos 1844 Rocket 3.3 19:41:05 10° SW 19:46:34 58° WNW 19:52:07 10° NNE
ISS -3.1 19:43:55 10° W 19:47:13 49° N 19:47:46 44° NNE
Cosmos 2278 Rocket 2.7 19:45:36 10° S 19:51:32 36° E 19:55:54 10° NE
Lacrosse 4 Rocket 2.2 19:49:07 10° NNW 19:52:52 34° NE 19:52:52 34° NE
Cosmos 1844 4.2 19:48:36 10° SW 19:54:14 62° WNW 19:59:50 10° NNE
Meteor 1-22 Rocket 4.3 19:49:43 10° S 19:55:36 70° E 20:01:40 10° NNE
Meteor 2-5 Rocket 3.9 19:50:09 10° NNW 19:55:50 76° W 20:00:46 14° S
Cosmos 909 Rocket 4.5 19:51:28 10° NNW 19:57:53 48° NE 19:59:54 36° E
Meteor 1-24 Rocket 3.6 19:52:34 10° NNW 19:58:10 89° E 20:01:37 25° S
Exosat Rocket 3.7 19:53:21 10° SSW 19:58:38 70° WNW 20:03:41 10° NNE
Okean 1 Rocket 3.5 19:56:19 10° SSW 20:00:45 64° WNW 20:05:14 10° N
SL-14 R/B 3.2 19:57:25 10° N 20:01:23 88° W 20:01:55 66° S
NOSS 3-4 (A) 3.2 19:55:42 10° SSW 20:01:37 78° SE 20:07:59 10° NE
NOSS 3-4 (C) 3.2 19:55:49 10° SSW 20:01:43 77° SE 20:08:05 10° NE
Resurs 01 Rocket 1.8 20:03:26 51° ENE 20:03:26 51° ENE 20:07:39 10° N
Cosmos 1766 4.0 20:06:07 10° SSW 20:09:57 53° WNW 20:13:51 10° N
Cosmos 1833 Rocket 2.6 20:04:49 10° NNW 20:10:31 79° ENE 20:11:54 53° SE
Cosmos 2251 Rocket 3.7 20:08:10 10° NNW 20:13:26 51° ENE 20:13:44 51° ENE
CENTAUR R/B 4.0 20:07:27 10° NW 20:15:06 46° WSW 20:22:00 15° S
ARIANE 5 R/B 3.6 20:20:05 34° NNE 20:20:05 34° NNE 20:23:00 10° N
SPOT 3 Rocket 3.5 20:20:50 56° S 20:21:58 84° WSW 20:27:10 10° NNW
Cosmos 1634 Rocket 4.2 20:17:57 10° SSW 20:24:05 71° W 20:30:19 10° N
ATLAS 2AS CENTAUR R/B 3.0 20:16:24 10° SW 20:24:24 89° NW 20:32:18 10° NE
SJ-6B 4.4 20:24:09 25° SW 20:25:21 31° W 20:28:46 10° NNW
Resurs 1-3 3.8 20:26:18 61° SW 20:26:41 65° W 20:31:04 10° NNW
ATLAS 3B R/B 2.7 20:20:57 10° NW 20:27:50 83° SW 20:29:50 51° SSE
Cosmos 1892 Rocket 3.8 20:24:10 10° NNW 20:28:28 65° W 20:28:35 64° WSW
SPOT 5 4.4 20:33:48 27° NE 20:33:48 27° NE 20:37:13 10° N
Meteor 1-21 Rocket 4.4 20:27:46 10° N 20:33:15 57° ENE 20:33:15 57° ENE
Cosmos 1655 Rocket 3.9 20:30:48 10° N 20:37:07 76° E 20:37:50 68° SE
Cosmos 1461 4.4 20:35:51 10° NNW 20:39:30 33° NNE 20:39:30 33° NNE
Cosmos 1340 Rocket 4.4 20:50:42 33° WNW 20:50:54 33° WNW 20:54:35 10° N
CZ-2C R/B 4.1 20:48:18 10° N 20:53:22 37° WNW 20:58:28 10° SW
Lacrosse 5 rocket 2.8 20:53:17 10° NW 20:56:20 39° NNW 20:56:20 39° NNW
MetOp-B 4.3 20:58:51 71° WNW 20:58:51 71° WNW 21:03:47 10° NNW
Cosmos 2279 Rocket 4.4 20:57:29 30° SSW 21:00:36 61° WNW 21:06:50 10° N
OBJECT-B 3.9 21:02:00 15° WNW 21:02:00 15° WNW 21:03:07 10° NW
Cosmos 2098 Rocket 3.9 20:54:47 10° NNW 21:01:33 74° W 21:01:45 73° WSW
Cosmos 2082 Rocket 2.4 20:58:00 10° NNW 21:03:08 67° WNW 21:03:08 67° WNW
Spot 2 Rocket 4.2 21:05:26 50° NNW 21:05:26 50° NNW 21:09:09 10° NNW
Terra 3.7 21:21:44 23° N 21:21:44 23° N 21:23:40 10° N
Lacrosse 4 Rocket 4.0 21:27:53 10° NW 21:29:10 18° WNW 21:29:10 18° WNW
Cosmos 2278 Rocket 3.2 21:33:01 33° W 21:34:46 42° NW 21:40:10 10° NNE
Resurs 01 Rocket 4.0 21:41:00 19° WNW 21:41:00 19° WNW 21:43:23 10° NW
ATLAS 2AS CENTAUR R/B 4.2 22:09:05 10° W 22:16:21 37° NNW 22:23:27 10° NE
